[[{"header":{"parameterUnit":"m.s-1","parameterCategory":1,"la1":30.2991,"la2":30.254,"lo1":-89.0895,"lo2":-89.0444,"dy":0.0017,"dx":0.0017,"nx":28,"ny":28,"refTime":"2025-04-21T09:00:00:Z","depth":0,"parameterNumber":2,"parameterNumberName":"U-component_of_WINDS"},"data":[0,0,0,0,0,0,0,0,0,0,0,0,0,0,0,0,0,0,0,0,0,0,0,0,0,0,0,0,0,0,0,0,0,0,0,0,0,0,0,0,0,0,0,0,0,0,0,0,0,0,0,0,0,0,0,0,0,0,-1.7334,-1.7334,0,-1.7314,-1.7314,-1.7314,-1.7277,-1.7277,-1.7276,-1.7275,-1.7256,-1.7256,-1.7256,0,0,0,0,0,0,0,0,0,0,0,0,0,-1.7343,-1.7343,-1.7334,-1.7334,-1.7334,-1.7314,-1.7314,-1.7314,-1.7277,-1.7277,-1.7276,-1.7275,-1.7256,-1.7256,-1.7256,0,0,0,0,0,0,0,0,0,0,0,0,0,-1.7333,-1.7343,-1.7334,-1.7313,-1.7311,-1.7314,-1.7314,-1.7314,-1.7278,-1.7277,-1.7276,-1.7275,-1.7256,-1.7256,-1.7256,-1.7279,0,0,-1.7257,-1.7257,0,0,0,0,0,0,0,0,-1.7333,-1.7333,-1.7317,-1.7315,-1.7313,-1.7297,-1.731,-1.7302,-1.7278,-1.729,-1.7275,-1.7274,-1.7271,-1.727,-1.7268,-1.7278,-1.7277,-1.7257,-1.7257,-1.7257,-1.7257,0,0,0,0,0,0,0,-1.7334,-1.7333,-1.7326,-1.7317,-1.7314,-1.7305,-1.7303,-1.7308,-1.7287,-1.7289,-1.7287,-1.7285,-1.7269,-1.7268,-1.7268,-1.7277,-1.7257,-1.7257,-1.7257,-1.7258,-1.7303,-1.7304,0,0,0,0,0,0,-1.7338,-1.7334,-1.7327,-1.7326,-1.7321,-1.7306,-1.7303,-1.7303,-1.7287,-1.7283,-1.7286,-1.7283,-1.7268,-1.7267,-1.7267,-1.729,-1.7257,-1.7258,-1.7258,-1.7302,-1.7303,-1.7304,0,0,0,0,0,0,-1.7338,-1.7338,-1.7328,-1.7329,-1.7327,-1.7307,-1.7307,-1.7303,-1.7302,-1.7284,-1.728,-1.7288,-1.7267,-1.7266,-1.7276,-1.7289,-1.7258,-1.7258,-1.73,-1.7302,-1.7304,-1.7339,0,0,0,0,0,0,-1.7339,-1.7338,-1.7346,-1.733,-1.7327,-1.7337,-1.7308,-1.7304,-1.7302,-1.7299,-1.7285,-1.7282,-1.7267,-1.7276,-1.7276,-1.7289,-1.7258,-1.7299,-1.7301,-1.7303,-1.7337,-1.7342,-1.7346,0,0,0,0,0,-1.7339,-1.7357,-1.7346,-1.7346,-1.7337,-1.7338,-1.7336,-1.7318,-1.7304,-1.7311,-1.73,-1.7282,-1.7288,-1.7277,-1.7277,-1.729,-1.7298,-1.7301,-1.7303,-1.7334,-1.7341,-1.7346,0,0,0,0,0,0,-1.7376,-1.7355,-1.7342,-1.7356,-1.7349,-1.7331,-1.7341,-1.7325,-1.7323,-1.732,-1.7297,-1.7295,-1.7307,-1.73,-1.7287,-1.7311,-1.729,-1.7293,-1.7314,-1.732,-1.7325,-1.7326,-1.7258,0,0,0,0,0,-1.7386,-1.7388,-1.7369,-1.7383,-1.738,-1.7361,-1.7361,-1.7347,-1.7339,-1.7336,-1.7325,-1.7319,-1.7319,-1.7319,-1.7319,-1.7336,-1.7332,-1.7345,-1.735,-1.7354,-1.7356,-1.7364,-1.7369,-1.7312,-1.7312,-1.7312,0,0,-1.7406,-1.7394,-1.7397,-1.739,-1.7383,-1.7385,-1.7359,-1.7363,-1.7365,-1.7337,-1.7344,-1.7336,-1.7328,-1.7341,-1.7346,-1.7335,-1.7371,-1.7357,-1.7361,-1.736,-1.7367,-1.7372,-1.7377,-1.7314,-1.7313,-1.7313,0,0,-1.7443,-1.7435,-1.7445,-1.7438,-1.7428,-1.7415,-1.7418,-1.7403,-1.7396,-1.7403,-1.7382,-1.7384,-1.7386,-1.738,-1.7377,-1.7413,-1.7396,-1.7413,-1.7438,-1.7445,-1.745,-1.7453,-1.7465,-1.7469,-1.7416,-1.7416,-1.7416,0,-1.7469,-1.7472,-1.7452,-1.7457,-1.7454,-1.7429,-1.7439,-1.7434,-1.7424,-1.7423,-1.7411,-1.7411,-1.7404,-1.7415,-1.7423,-1.7423,-1.7424,-1.7414,-1.7451,-1.7454,-1.7457,-1.7468,-1.7473,-1.7418,-1.7418,-1.7417,-1.7417,0,-1.7504,-1.7506,-1.7515,-1.7505,-1.7504,-1.7512,-1.7493,-1.7495,-1.7482,-1.747,-1.7478,-1.7468,-1.7464,-1.7466,-1.7454,-1.7475,-1.7469,-1.7455,-1.7433,-1.7465,-1.7475,-1.7479,-1.7421,-1.742,-1.7419,-1.7419,0,0,-1.7562,-1.7542,-1.7545,-1.754,-1.7527,-1.7528,-1.7535,-1.7531,-1.7532,-1.7526,-1.7531,-1.7533,-1.7519,-1.7516,-1.7503,-1.751,-1.7537,-1.7494,-1.7494,-1.7501,-1.7559,-1.7568,-1.7573,-1.7527,-1.7528,-1.7528,-1.7559,0,-1.7596,-1.7605,-1.7587,-1.7601,-1.7602,-1.7579,-1.7584,-1.7577,-1.7567,-1.7567,-1.7557,-1.7557,-1.754,-1.7538,-1.7544,-1.7532,-1.7548,-1.753,-1.753,-1.753,-1.7531,-1.7578,-1.7589,-1.7618,-1.7562,-1.7563,-1.7564,0,-1.7635,-1.7631,-1.7644,-1.7629,-1.7629,-1.7635,-1.7629,-1.763,-1.7621,-1.7613,-1.761,-1.7594,-1.76,-1.7581,-1.7588,-1.7577,-1.7576,-1.7571,-1.7571,-1.7569,-1.7548,-1.7576,-1.7627,-1.7631,-1.7569,-1.7569,-1.7569,0,-1.7675,-1.7673,-1.768,-1.7676,-1.766,-1.7664,-1.7657,-1.7647,-1.7646,-1.7642,-1.764,-1.7637,-1.7635,-1.7633,-1.7617,-1.7605,-1.7626,-1.7606,-1.7619,-1.762,-1.7623,-1.7623,-1.7673,-1.7626,-1.7626,-1.7626,-1.7626,0,-1.7713,-1.7722,-1.7697,-1.7701,-1.771,-1.7691,-1.77,-1.7692,-1.7683,-1.7685,-1.7666,-1.7669,-1.7648,-1.7649,-1.7637,-1.7644,-1.7644,-1.7637,-1.7633,-1.7638,-1.7638,-1.7636,-1.7633,-1.7627,-1.7627,-1.7627,-1.7626,0,-1.7758,-1.7742,-1.7748,-1.7732,-1.7728,-1.7735,-1.7721,-1.7725,-1.7714,-1.7717,-1.7717,-1.7699,-1.7699,-1.7683,-1.768,-1.7672,-1.7684,-1.7677,-1.7686,-1.7683,-1.7697,-1.7695,-1.7746,-1.7751,-1.7702,-1.7703,-1.7703,0,-1.7783,-1.7789,-1.7773,-1.7772,-1.7766,-1.7767,-1.7765,-1.7746,-1.7745,-1.7735,-1.774,-1.7738,-1.7735,-1.7736,-1.7723,-1.772,-1.7712,-1.773,-1.7712,-1.7716,-1.7711,-1.771,-1.771,-1.7734,-1.7735,-1.7735,-1.7735,0,-1.7827,-1.7819,-1.7817,-1.7811,-1.7809,-1.7805,-1.7799,-1.78,-1.7779,-1.7779,-1.7778,-1.7776,-1.7772,-1.777,-1.7765,-1.7759,-1.7743,-1.7742,-1.7744,-1.7748,-1.7752,-1.7748,-1.7695,-1.774,-1.774,-1.7739,-1.7739,-1.7739,-1.7862,-1.7865,-1.7855,-1.7852,-1.7846,-1.7841,-1.7843,-1.7832,-1.783,-1.7825,-1.7814,-1.7815,-1.7806,-1.7797,-1.7792,-1.7792,-1.7783,-1.7788,-1.7788,-1.7789,-1.7791,-1.7754,-1.7792,-1.7792,-1.7791,-1.7791,-1.7791,0,-1.7904,-1.7896,-1.7894,-1.7886,-1.7884,-1.787,-1.7863,-1.7862,-1.7863,-1.7855,-1.7853,-1.7851,-1.7849,-1.7837,-1.7833,-1.7835,-1.7828,-1.7835,-1.7834,-1.7832,-1.78,-1.7797,-1.7841,-1.7841,-1.7841,-1.7841,-1.7841,-1.7841,-1.7926,-1.7931,-1.7921,-1.7923,-1.7915,-1.7914,-1.7911,-1.7906,-1.79,-1.7899,-1.7897,-1.7888,-1.7879,-1.7874,-1.7872,-1.7868,-1.7867,-1.7876,-1.787,-1.784,-1.7835,-1.783,-1.7827,-1.7876,-1.7876,-1.7902,-1.7902,-1.7902]},{"header":{"parameterUnit":"m.s-1","parameterCategory":1,"la1":30.2991,"la2":30.254,"lo1":-89.0895,"lo2":-89.0444,"dy":0.0017,"dx":0.0017,"nx":28,"ny":28,"refTime":"2025-04-21T09:00:00:Z","depth":0,"parameterNumber":3,"parameterNumberName":"V-component_of_WINDS"},"data":[0,0,0,0,0,0,0,0,0,0,0,0,0,0,0,0,0,0,0,0,0,0,0,0,0,0,0,0,0,0,0,0,0,0,0,0,0,0,0,0,0,0,0,0,0,0,0,0,0,0,0,0,0,0,0,0,0,0,4.4853,4.4853,0,4.4899,4.49,4.49,4.4955,4.4956,4.4957,4.4958,4.4999,4.4999,4.5,0,0,0,0,0,0,0,0,0,0,0,0,0,4.4808,4.4808,4.4852,4.4853,4.4854,4.4899,4.49,4.49,4.4955,4.4956,4.4957,4.4958,4.4999,4.4999,4.5,0,0,0,0,0,0,0,0,0,0,0,0,0,4.4838,4.4809,4.4852,4.4887,4.489,4.4899,4.49,4.49,4.4955,4.4956,4.4958,4.4959,4.4999,4.4999,4.5,4.4977,0,0,4.5001,4.5001,0,0,0,0,0,0,0,0,4.4836,4.4839,4.4881,4.4884,4.4888,4.4923,4.4899,4.4926,4.4955,4.493,4.4958,4.4959,4.4972,4.4975,4.4981,4.4979,4.498,4.5001,4.5002,4.5002,4.5002,0,0,0,0,0,0,0,4.4834,4.4838,4.4871,4.4882,4.4886,4.4899,4.4904,4.4904,4.4943,4.4932,4.4937,4.4942,4.4975,4.498,4.4982,4.4981,4.5001,4.5002,4.5002,4.5002,4.4966,4.4965,0,0,0,0,0,0,4.4827,4.4836,4.4869,4.4872,4.4865,4.4898,4.4905,4.491,4.4943,4.495,4.494,4.4944,4.4979,4.4981,4.4984,4.4961,4.5002,4.5002,4.5002,4.4967,4.4966,4.4964,0,0,0,0,0,0,4.4826,4.483,4.4867,4.4855,4.4861,4.4898,4.4904,4.4911,4.4916,4.495,4.4956,4.4939,4.498,4.4983,4.4979,4.4963,4.5002,4.5003,4.4969,4.4967,4.4965,4.4914,0,0,0,0,0,0,4.4825,4.4829,4.4821,4.4855,4.4861,4.4863,4.4903,4.4911,4.4918,4.4923,4.495,4.4956,4.4981,4.4978,4.498,4.4965,4.5003,4.497,4.4968,4.4966,4.4918,4.4911,4.4905,0,0,0,0,0,4.4823,4.4803,4.482,4.4824,4.4852,4.4862,4.4865,4.4897,4.4916,4.4908,4.493,4.4955,4.4965,4.4977,4.4979,4.4964,4.4971,4.4968,4.4966,4.492,4.4912,4.4906,0,0,0,0,0,0,4.4763,4.4807,4.4828,4.4818,4.4836,4.4871,4.4862,4.4887,4.4898,4.4902,4.4938,4.4944,4.4936,4.495,4.4963,4.4946,4.4972,4.4969,4.4937,4.4929,4.4923,4.492,4.5003,0,0,0,0,0,4.4749,4.4754,4.4792,4.478,4.4789,4.4824,4.4829,4.4852,4.4871,4.4878,4.49,4.4916,4.4924,4.4927,4.4935,4.492,4.4928,4.4911,4.4905,4.49,4.4897,4.4893,4.4887,4.4955,4.4955,4.4955,0,0,4.4719,4.4744,4.4745,4.4769,4.4786,4.479,4.4829,4.4831,4.4835,4.4878,4.4877,4.4894,4.4914,4.4906,4.4903,4.4917,4.488,4.4896,4.4892,4.4892,4.489,4.4883,4.4877,4.4953,4.4954,4.4954,0,0,4.4667,4.4687,4.468,4.4698,4.4724,4.4748,4.4747,4.4779,4.4793,4.4793,4.4827,4.4831,4.4842,4.4857,4.4865,4.4824,4.4848,4.4826,4.4794,4.4789,4.4784,4.4779,4.4767,4.4761,4.4823,4.4823,4.4823,0,4.4626,4.4636,4.4673,4.4675,4.4685,4.4728,4.4722,4.4736,4.4763,4.4768,4.4785,4.4802,4.4819,4.4816,4.4807,4.4812,4.4812,4.4822,4.4782,4.4778,4.4774,4.4762,4.4757,4.482,4.4821,4.4821,4.4821,0,4.4585,4.4592,4.4583,4.4612,4.4621,4.4618,4.4655,4.466,4.4683,4.4706,4.4707,4.4729,4.4745,4.4745,4.4766,4.4746,4.4755,4.4776,4.4803,4.4764,4.4754,4.4749,4.4816,4.4817,4.4818,4.4819,0,0,4.4494,4.4547,4.4544,4.4559,4.4593,4.4598,4.4598,4.4617,4.4621,4.4638,4.464,4.4651,4.4672,4.4682,4.4705,4.4701,4.4671,4.4724,4.4725,4.4714,4.4652,4.4637,4.4631,4.4687,4.4687,4.4686,4.4651,0,4.4449,4.4455,4.4491,4.4485,4.4493,4.4536,4.4536,4.4557,4.4579,4.4588,4.4611,4.4619,4.4646,4.4653,4.4651,4.4675,4.4659,4.4678,4.4689,4.4689,4.4683,4.4625,4.4608,4.4574,4.4647,4.4646,4.4646,0,4.4397,4.4417,4.4413,4.4452,4.4456,4.4456,4.4477,4.4485,4.451,4.4527,4.4541,4.4569,4.4571,4.4598,4.4603,4.4615,4.4622,4.4635,4.4634,4.4637,4.4665,4.4627,4.4563,4.4559,4.464,4.464,4.4641,0,4.4333,4.4358,4.436,4.4372,4.4416,4.4415,4.4433,4.446,4.447,4.4488,4.4495,4.4512,4.4521,4.4534,4.4566,4.4582,4.4568,4.4596,4.4582,4.4581,4.4576,4.4576,4.4514,4.458,4.458,4.458,4.458,0,4.428,4.4276,4.4333,4.4334,4.4332,4.4373,4.437,4.4392,4.4416,4.4422,4.446,4.4464,4.4506,4.4515,4.454,4.4542,4.4545,4.4559,4.4565,4.4556,4.4554,4.4561,4.4564,4.4578,4.4579,4.4579,4.4579,0,4.4208,4.4245,4.4251,4.4294,4.4305,4.4302,4.4339,4.4342,4.4368,4.4375,4.4379,4.4419,4.4432,4.4466,4.4487,4.4504,4.45,4.4511,4.4492,4.4496,4.448,4.4482,4.4421,4.4416,4.4483,4.4482,4.4482,0,4.4171,4.4171,4.4216,4.4224,4.4242,4.4254,4.4266,4.4307,4.4317,4.4349,4.4348,4.4365,4.4381,4.4401,4.4431,4.4448,4.4461,4.4439,4.4463,4.4455,4.4463,4.4463,4.4464,4.4433,4.4432,4.4431,4.443,0,4.4104,4.4124,4.414,4.4165,4.4179,4.4199,4.422,4.4225,4.4271,4.4281,4.4297,4.431,4.4335,4.4351,4.4374,4.4392,4.4419,4.4423,4.4421,4.4411,4.4401,4.4408,4.4478,4.4424,4.4424,4.4425,4.4425,4.4426,4.4049,4.4052,4.4086,4.4104,4.4126,4.4147,4.4153,4.4182,4.4197,4.4222,4.4245,4.4259,4.4288,4.4322,4.4338,4.4349,4.4363,4.4359,4.4358,4.4357,4.4354,4.4399,4.4353,4.4353,4.4354,4.4354,4.4354,0,4.3985,4.401,4.4027,4.4059,4.4074,4.4102,4.4128,4.4138,4.4152,4.4177,4.4194,4.4214,4.4231,4.4265,4.4285,4.4288,4.4301,4.4292,4.4293,4.4297,4.4339,4.434,4.4282,4.4282,4.4282,4.4282,4.4282,4.4282,4.3953,4.3961,4.3985,4.4004,4.4029,4.4046,4.4059,4.4079,4.41,4.4122,4.4138,4.4161,4.419,4.4214,4.4231,4.4241,4.4247,4.4234,4.4247,4.4286,4.4293,4.43,4.4301,4.4235,4.4235,4.4204,4.4204,4.4203]}]]